Probability
1 2 2 1 0 1 2 3 2 1 0 0 0 0 0 0 0 0 0 0 0 0 0 0 0 0 0 0 0 0 0 0 0 0 0 0 0 0 0 1 0 0 0
1 2 2 1 0 0 1 2 1 0 0 0 0 0 0 0 0 0 0 0 0 0 0 0 0 0 0 0 0 0 0 0 0 0 0 0 0 0 0 1 0 0 0
0 1 1 0 0 0 0 0 0 0 0 0 0 0 0 0 0 0 0 0 0 0 0 0 0 0 0 0 0 0 0 0 0 0 0 0 0 0 0 0 0 0 1
0 0 0 0 0 0 0 0 0 0 0 0 0 0 0 0 0 0 0 0 0 0 0 0 0 0 0 0 0 0 0 0 0 0 0 0 0 0 0 0 0 1 2
0 0 0 1 1 1 0 0 0 0 0 0 0 0 0 0 0 0 0 0 0 0 0 0 0 0 0 0 0 0 0 0 0 0 0 0 0 0 0 0 0 1 2
0 0 0 1 2 1 0 0 0 0 0 0 0 0 0 0 0 0 0 0 0 0 0 0 0 0 0 0 0 0 0 0 0 0 0 0 0 0 0 0 0 1 2
0 0 0 1 1 1 0 0 0 0 0 0 0 0 0 0 0 0 0 0 0 0 0 0 0 0 0 0 0 0 0 0 0 0 0 0 0 0 0 0 0 0 1
0 0 0 0 0 0 0 0 0 0 0 0 0 0 0 0 0 0 0 0 0 0 0 0 0 0 0 0 0 0 0 0 0 0 0 0 0 0 0 0 0 0 0
0 0 0 0 0 0 0 0 0 0 0 0 0 0 0 0 0 0 0 0 0 0 0 0 0 0 0 0 0 0 0 0 0 0 0 0 0 0 0 0 0 0 0
0 0 0 0 0 0 0 0 0 0 0 0 0 0 0 0 0 0 0 0 0 0 0 0 0 0 0 0 0 0 0 0 0 0 0 0 0 0 0 0 0 0 0
0 0 0 0 0 0 0 0 0 0 0 0 0 0 0 0 0 0 0 0 0 0 0 0 0 0 0 0 0 0 0 0 0 0 0 0 0 0 0 0 0 0 0
0 0 0 0 0 0 0 0 0 0 0 0 0 0 0 0 0 0 0 0 0 0 0 0 0 0 0 0 0 0 0 0 0 0 0 0 0 0 0 0 0 0 0
0 0 0 0 0 0 0 0 0 0 0 0 0 0 0 0 0 0 0 0 0 0 0 0 0 0 0 0 0 0 0 0 0 0 0 0 0 0 0 0 0 0 0
0 0 0 0 0 0 0 0 0 0 0 0 0 0 0 0 0 0 0 0 0 0 0 0 0 0 0 0 0 0 0 0 0 0 0 0 0 1 0 0 0 0 0
0 0 0 0 0 0 0 0 0 0 0 0 0 0 0 0 0 0 0 0 0 0 0 0 0 0 0 0 0 0 0 0 0 0 0 0 0 0 0 0 0 0 0
0 0 0 0 0 0 0 0 0 0 0 0 0 0 0 0 0 0 0 0 0 0 0 0 0 0 0 0 0 0 0 0 0 0 0 0 0 0 0 0 0 0 0
0 0 0 0 0 0 0 0 0 0 0 0 0 0 0 0 0 0 0 0 0 0 0 0 0 0 0 0 0 0 0 0 0 0 0 0 0 0 0 0 0 0 0
0 0 0 0 0 0 0 0 0 0 0 0 0 0 0 0 0 0 0 0 0 0 0 0 0 0 0 0 0 0 0 0 0 0 0 0 0 0 0 0 0 0 0
0 0 0 0 0 0 0 0 0 0 0 0 0 0 0 0 0 0 0 0 0 0 0 0 0 0 0 0 0 0 0 0 0 0 0 0 0 0 0 0 0 0 0
0 0 0 0 0 0 0 0 0 0 0 0 0 0 0 0 0 0 0 0 0 0 0 0 0 0 0 0 0 0 0 0 0 0 0 0 0 0 0 0 0 0 0
0 0 0 0 0 0 0 0 0 0 0 0 0 0 0 0 0 0 0 0 0 0 0 0 0 0 0 0 0 0 0 0 0 0 0 0 0 0 0 0 0 0 0
0 0 0 0 0 0 0 0 0 0 0 0 0 0 0 0 0 0 0 0 0 0 0 0 0 0 0 0 0 0 0 0 0 0 0 0 0 0 0 0 0 0 0
0 0 0 0 0 0 0 0 0 0 0 0 0 0 0 0 0 0 0 0 0 0 0 0 0 0 0 0 0 0 0 0 0 0 0 0 0 0 0 0 0 0 0
0 0 0 0 0 0 0 0 0 0 0 0 0 0 0 0 1 1 0 0 0 0 0 0 0 0 0 0 0 0 0 0 0 0 0 0 0 0 0 0 0 0 0
0 0 0 0 0 0 0 0 0 1 1 0 0 0 0 1 2 1 0 0 0 0 0 0 0 0 0 0 0 0 0 0 0 0 0 0 0 0 0 0 0 0 0
0 0 0 0 0 0 0 0 0 1 1 1 1 0 0 1 2 1 0 0 0 0 0 0 0 0 0 0 0 0 0 0 0 0 0 0 0 0 0 0 0 0 0
Wind_Speed
3 2 2 1 1 1 1 2 1 2 2 2 2 2 3 3 3 3 4 3 3 3 3 3 3 4 4 3 3 3 4 4 4 3 2 0 1 2 1 1 1 2 3
2 2 2 2 2 1 2 1 1 1 1 2 2 2 3 3 3 3 3 3 3 4 4 4 4 3 4 4 3 3 3 3 3 3 2 2 2 2 2 1 1 0 2
2 2 2 1 1 2 2 1 1 1 1 2 2 2 3 3 3 3 3 4 4 4 4 4 4 4 4 3 4 3 3 2 2 3 3 2 2 2 2 2 2 1 2
2 2 2 1 1 1 1 1 1 1 1 1 2 2 2 3 4 4 3 3 4 4 4 4 4 4 5 4 3 3 3 3 3 3 3 2 2 2 3 2 3 3 2
2 2 2 1 2 1 1 1 1 1 1 2 2 2 3 3 4 6 4 4 4 4 3 3 3 4 5 5 4 3 3 3 3 3 3 3 3 3 3 3 2 3 3
2 2 2 2 1 1 1 1 1 1 2 2 2 3 3 4 5 6 7 4 4 4 4 4 2 1 1 2 3 4 5 4 3 3 3 3 3 3 3 3 3 3 3
2 2 2 2 1 1 0 1 1 1 1 2 2 3 3 4 3 5 7 5 4 4 4 4 4 3 3 2 2 5 4 4 5 5 4 4 4 4 3 4 3 2 1
2 2 2 1 1 1 1 1 1 1 1 2 2 2 2 3 2 4 7 5 3 3 4 4 4 4 5 5 4 2 1 1 3 4 4 4 3 3 3 3 3 3 2
2 2 2 2 2 1 1 1 1 1 1 1 2 2 2 1 2 4 8 4 2 3 4 4 5 4 5 7 4 2 1 1 1 2 1 2 2 2 3 3 4 3 3
2 2 2 2 2 2 2 1 1 1 1 2 2 2 3 2 2 3 8 4 3 2 2 1 3 4 6 7 4 3 2 1 1 2 3 4 5 5 6 5 3 3 2
2 2 2 1 1 1 1 1 1 1 2 2 2 2 2 2 1 1 5 5 4 4 3 2 3 3 4 5 5 3 3 4 2 2 3 3 4 4 5 5 3 3 2
2 2 2 1 0 1 0 1 1 2 2 1 1 2 1 0 1 0 2 5 7 5 4 4 4 4 5 5 4 3 4 5 2 1 1 2 2 2 2 2 3 3 3
3 2 2 1 0 0 1 1 2 2 2 2 1 2 2 1 1 3 3 4 5 5 4 4 5 5 5 4 3 4 4 3 1 1 1 1 1 1 2 3 4 5 5
2 2 2 2 1 1 1 2 2 2 2 3 3 3 2 2 2 1 1 2 4 5 4 3 6 7 6 4 3 3 3 1 2 1 1 1 1 2 2 2 3 4 4
2 2 2 1 1 1 1 2 3 3 4 4 4 4 4 3 4 6 6 5 6 6 7 5 4 2 2 2 1 1 2 2 2 2 2 2 2 2 2 3 3 4 3
2 2 1 1 1 2 1 1 1 2 2 4 5 6 4 3 4 5 5 6 7 7 7 5 3 3 3 2 2 2 2 2 2 2 2 3 2 2 3 3 4 4 4
2 1 1 1 1 2 2 2 1 2 5 7 7 7 7 7 7 7 7 7 8 6 6 5 4 3 3 3 3 3 2 1 2 3 3 3 3 3 3 4 4 4 4
2 2 3 2 3 3 3 3 3 3 2 3 6 9 9 8 8 8 7 7 6 6 5 4 4 3 3 3 3 3 3 2 3 3 3 3 3 4 4 4 4 4 4
3 2 2 2 3 3 3 4 4 4 3 3 3 4 9 9 10 9 7 6 6 5 4 4 4 4 4 4 4 4 4 3 3 4 3 4 4 4 4 4 4 4 5
3 2 4 4 4 4 4 4 4 4 4 4 4 4 3 4 5 5 6 6 6 5 5 5 4 5 5 5 4 4 4 4 4 4 4 4 4 5 5 6 5 5 5
4 3 6 6 4 4 4 4 5 5 5 5 5 3 4 6 5 5 5 5 5 5 5 5 5 6 5 5 5 5 5 5 5 5 4 4 5 5 5 6 6 6 7
4 4 4 4 4 4 5 5 5 5 6 7 6 4 5 7 6 6 5 6 6 6 5 6 6 6 5 5 5 5 6 5 5 5 6 6 6 6 6 7 7 7 7
5 5 5 4 4 4 6 6 6 6 6 7 6 5 5 6 6 6 6 6 6 6 6 6 7 7 6 6 6 7 7 6 6 5 6 7 7 7 7 7 8 8 8
5 5 5 5 5 6 6 6 6 6 7 7 6 6 6 6 6 7 7 7 7 7 7 7 7 9 10 8 7 7 6 5 7 7 8 8 8 8 8 7 8 9 9
6 6 6 6 6 6 6 7 7 7 7 7 7 7 7 7 7 7 7 7 8 8 9 9 8 8 10 11 10 8 4 3 4 7 9 9 10 10 10 10 9 10 9
6 6 6 6 6 7 7 7 8 8 8 7 7 8 8 8 7 7 7 7 7 7 8 8 10 10 11 10 10 7 3 4 5 6 8 9 10 10 10 9 12 11 11
Wind_Direction
142 134 119 108 102 96 82 80 67 46 23 4 5 11 7 358 355 341 338 337 335 337 328 322 314 316 305 295 281 270 259 249 249 262 286 213 218 242 228 239 191 207 131
138 129 113 102 94 82 71 61 72 60 22 13 1 9 6 6 359 345 339 342 340 341 336 329 320 314 307 298 293 283 274 265 251 248 253 237 225 227 207 203 188 158 120
133 126 110 105 97 80 56 29 38 59 40 25 12 11 5 1 355 348 344 342 346 343 335 329 326 323 312 308 293 282 270 256 253 246 245 242 226 215 194 187 162 166 152
127 113 103 93 96 84 61 36 28 28 23 20 13 9 1 3 359 351 350 349 346 344 337 331 330 327 322 315 297 285 276 257 238 236 235 224 204 197 207 188 177 180 166
140 124 99 78 79 80 67 47 33 15 8 12 4 4 6 9 12 356 344 345 343 336 334 336 346 347 350 330 320 311 287 266 245 231 225 215 197 195 203 199 186 170 158
139 130 101 87 80 56 48 37 20 19 10 0 357 352 0 24 28 352 329 334 334 338 343 342 334 299 316 264 284 297 299 281 273 254 232 220 212 209 204 210 200 190 172
142 130 111 109 106 89 60 27 11 17 19 3 3 356 9 37 22 347 330 319 336 346 342 335 339 3 325 321 238 226 240 247 258 271 257 246 227 215 210 213 208 214 194
139 122 109 115 98 87 88 50 19 12 6 349 351 348 358 46 37 331 314 295 329 340 339 342 344 346 353 332 314 303 285 234 246 243 252 260 260 235 217 221 208 189 179
124 98 84 76 77 76 57 37 21 356 342 312 328 328 337 42 33 323 311 305 332 346 343 350 344 354 1 330 308 306 299 270 194 210 266 279 311 267 253 229 202 201 193
123 106 94 77 65 57 43 0 351 331 315 308 334 324 328 354 49 327 318 307 340 341 353 7 34 3 350 333 315 311 305 301 256 183 190 202 207 199 208 234 240 232 212
129 119 107 94 91 78 40 337 312 304 325 317 319 322 337 357 73 338 327 318 332 335 351 9 44 26 340 326 310 322 321 304 257 212 196 195 194 191 197 207 229 256 265
134 130 122 127 161 115 168 297 307 306 285 285 301 307 319 50 13 28 302 313 319 322 332 356 30 0 328 314 312 330 301 279 255 214 193 196 202 195 188 207 222 251 268
148 145 145 144 140 242 258 266 278 278 289 311 319 335 350 11 118 191 234 268 288 299 328 346 318 295 286 262 255 276 272 260 249 223 198 191 205 211 214 203 210 225 238
153 157 177 189 196 183 278 297 316 328 326 329 341 346 346 336 331 345 274 234 233 253 278 256 238 250 254 269 249 230 242 286 298 284 286 238 222 213 216 216 216 216 219
163 176 194 214 227 258 291 336 325 351 350 320 328 326 322 327 20 3 328 326 333 347 325 296 285 277 261 232 241 255 255 226 218 229 251 247 226 216 217 212 223 231 231
190 207 225 234 253 271 263 237 274 274 240 246 266 289 305 304 302 301 300 297 298 308 300 288 295 297 297 298 283 247 242 262 269 252 246 247 247 236 225 222 225 235 239
215 247 268 273 278 279 282 282 269 230 227 233 237 244 254 276 282 279 277 280 276 276 268 280 296 308 308 297 290 289 282 271 277 272 266 263 260 256 245 235 229 233 238
228 226 253 265 275 284 289 286 281 280 262 243 219 220 231 244 254 259 261 269 250 231 257 277 286 291 297 300 295 291 288 270 253 249 247 253 252 252 250 248 243 246 254
250 261 270 287 282 286 285 284 283 286 285 285 275 210 210 222 230 238 236 253 274 276 273 278 282 284 283 282 283 287 289 283 276 270 257 258 260 258 260 260 252 226 247
231 245 263 272 270 272 274 279 281 281 285 287 285 286 246 245 252 228 218 245 263 272 276 282 288 290 285 282 275 269 270 271 270 263 257 256 258 261 260 262 263 258 252
237 212 217 248 267 284 288 286 285 286 291 291 286 300 308 287 282 282 276 263 265 270 272 277 274 271 267 266 270 269 268 270 271 276 274 265 263 262 263 264 260 259 260
253 256 257 267 270 273 285 284 281 282 284 285 285 260 219 257 277 282 281 277 273 267 264 269 275 274 274 275 279 274 271 270 269 268 269 268 262 260 262 263 265 266 264
248 254 260 264 270 269 264 269 276 279 283 284 286 286 271 274 281 282 282 282 279 273 270 265 266 271 275 275 275 277 279 280 278 276 274 273 270 265 262 263 265 266 264
251 255 260 264 267 272 274 274 276 279 283 284 284 285 285 284 280 280 281 279 278 276 272 267 265 271 274 273 270 266 269 283 289 283 276 272 273 273 270 267 265 266 267
247 251 259 264 267 271 276 280 282 284 284 283 283 283 284 284 283 280 276 274 274 274 276 276 272 270 271 271 272 276 284 272 270 286 285 273 269 269 270 271 268 268 266
251 256 262 267 269 271 273 275 278 282 284 284 282 282 282 280 279 279 280 278 278 276 275 275 275 276 276 273 274 277 259 250 247 250 269 273 270 268 268 266 266 265 265